Location: Biarre
(49.7225°N, 2.8801°E)
Time: 08:38:58
(UTC+00:00)

Daily predictions for brighter satellites

Satellite Brightness Start Highest point End
(mag) Time Altitude Azimuth Time Altitude Azimuth Time Altitude Azimuth
COSMOS 2428 3.0 17:21:55 10° NNW 17:27:29 50° NE 17:33:03 10° SE
SMAP 3.9 17:26:02 10° S 17:30:37 58° W 17:35:14 10° NNW
ARIANE 5 R/B 2.6 17:27:57 10° SSE 17:33:05 87° WSW 17:38:12 10° NNW
Cosmos 2237 Rocket 3.1 17:31:39 10° NNW 17:36:37 30° NE 17:41:34 10° ESE
Cosmos 2322 Rocket 4.2 17:31:46 10° NW 17:36:47 35° WSW 17:41:48 10° S
Cosmos 158 Rocket 4.3 17:32:16 10° S 17:36:48 41° ESE 17:41:22 10° NE
Aureole 3 Rocket 4.1 17:33:36 10° NNE 17:36:57 20° ENE 17:39:42 10° ESE
ATLAS 5 CENTAUR R/B 1.9 17:34:03 10° NW 17:38:14 78° SW 17:43:28 10° SE
Meteor 1-28 Rocket 4.4 17:36:09 10° N 17:39:17 39° WNW 17:42:23 10° SW
Cosmos 1378 Rocket 3.7 17:36:03 10° SSE 17:40:12 49° E 17:44:21 10° NNE
SeaSat 1 2.7 17:35:25 10° SSE 17:40:18 78° WSW 17:45:14 10° NNW
Resurs 01 Rocket 2.6 17:38:07 10° ESE 17:41:43 25° ENE 17:45:20 10° N
USA 234 4.2 17:35:21 10° SE 17:41:44 53° SW 17:48:08 10° WNW
SKYMED 2 3.8 17:38:54 10° NNE 17:43:07 48° E 17:47:19 10° S
Cosmos 1459 Rocket 4.3 17:37:00 10° NNW 17:43:13 78° W 17:49:29 10° S
Thor Agena Rocket 4.4 17:38:35 10° S 17:43:33 54° W 17:48:37 10° NNW
GP-B 3.0 17:39:58 10° SSE 17:44:16 69° E 17:48:38 10° N
Cosmos 2219 Rocket 3.2 17:41:12 10° NW 17:46:36 51° WSW 17:51:57 10° S
COSMO-SKYMED 1 3.2 17:43:40 10° NNE 17:47:22 31° E 17:51:02 10° SSE
Cosmos 2292 Rocket 2.4 17:46:46 10° S 17:49:38 83° E 17:52:40 10° N
CZ-4 R/B 4.3 17:46:33 10° SSE 17:50:31 83° ENE 17:54:31 10° NNW
SJ-12 4.4 17:47:15 10° S 17:51:00 58° WSW 17:54:47 10° NNW
PSLV R/B 3.9 17:47:37 10° SE 17:51:27 38° ENE 17:55:16 10° N
NOSS 3-3 (A) 4.2 17:46:44 10° S 17:51:29 39° ESE 17:57:01 10° NE
Cosmos 2322 3.7 17:46:05 10° NNW 17:51:50 78° ENE 17:57:33 10° SSE
USA 306 1.4 17:50:24 10° WNW 17:53:28 71° NNE 17:55:02 16° ESE
IRS-P3 4.2 17:48:28 10° SSE 17:53:48 84° WSW 17:59:10 10° NNW
Cosmos 2016 Rocket 4.0 17:47:57 10° N 17:54:13 84° E 18:00:31 10° S
Resurs 1-3 3.5 17:50:50 10° SSE 17:55:06 67° ENE 17:59:23 10° N
Cosmos 1802 Rocket 4.3 17:51:09 10° NNW 17:57:34 80° W 18:03:58 10° S
Cosmos 1025 Rocket 3.4 17:54:29 10° SSE 17:58:32 42° E 18:02:38 10° NNE
Cosmos 2242 Rocket 3.7 17:54:18 10° SSW 17:58:40 78° W 18:03:05 10° N
Cosmos 2285 Rocket 4.3 17:52:29 10° NNW 17:58:44 49° ENE 18:04:55 10° SE
SJ-7 4.3 17:55:37 10° SE 17:59:10 48° ENE 18:02:44 10° N
SL-16 R/B 3.7 17:55:49 10° N 17:59:40 18° NE 18:02:26 13° ENE
SPOT 1/Viking Rocket 3.9 17:58:55 10° S 18:04:00 69° WSW 18:09:09 10° NNW
Cosmos 2227 Rocket 3.9 18:02:05 10° ESE 18:03:35 12° ESE 18:03:35 12° ESE
SJ-6B 3.5 18:05:32 10° SE 18:08:25 25° ENE 18:11:18 10° N
NOSS 3-4 (A) 4.1 18:02:27 10° NW 18:08:39 47° NE 18:15:10 13° ESE
NOSS 3-4 (C) 4.1 18:02:42 10° NW 18:08:55 47° NE 18:15:23 13° ESE
Cosmos 2233 Rocket 4.0 18:03:52 10° N 18:10:10 83° E 18:16:29 10° S
SPOT 5 4.2 18:08:21 16° E 18:10:32 21° ENE 18:14:14 10° N
CZ-2D R/B 3.2 18:09:05 10° SSE 18:12:58 84° ENE 18:16:59 10° NNW
Cosmos 1674 Rocket 3.5 18:10:19 10° S 18:14:41 78° E 18:19:07 10° NNE
Cosmos 1725 Rocket 4.5 18:08:54 10° NNW 18:15:05 66° W 18:21:16 10° S
Cosmos 1315 Rocket 3.1 18:12:24 10° NNW 18:16:10 64° W 18:19:56 10° S
Meteor 1-11 4.2 18:12:27 10° S 18:18:04 87° E 18:23:50 10° NNE
Cosmos 1867 3.8 18:16:55 10° SW 18:22:21 73° NW 18:27:50 10° NE
SL-16 R/B 4.5 18:19:04 10° N 18:24:08 28° NW 18:29:14 10° WSW
ATLAS 2AS CENTAUR R/B 4.0 18:18:43 10° W 18:24:54 33° NNW 18:31:01 10° NE
Cosmos 724 4.4 18:18:51 10° SW 18:25:03 85° NW 18:31:10 10° NE
Cosmos 2061 Rocket 4.1 18:18:56 10° N 18:25:23 88° WSW 18:31:42 10° S
Lacrosse 5 rocket 1.4 18:22:50 10° WSW 18:26:17 55° NNW 18:28:21 22° NE
CZ-4 R/B 3.2 18:28:10 13° NNE 18:28:10 13° NNE 18:29:00 10° NNE
CZ-4B R/B 4.5 18:26:45 19° ENE 18:27:05 19° NE 18:30:39 10° NNE
Cosmos 2151 Rocket 4.3 18:26:40 10° NNW 18:31:05 58° W 18:35:29 10° S
Meteor 2-1 Rocket 4.4 18:25:24 10° NNW 18:31:13 84° W 18:37:06 10° S
Meteor 1-31 Rocket 4.1 18:32:59 19° NNE 18:32:59 19° NNE 18:34:34 10° N
CZ-4C R/B 1.7 18:27:37 10° SW 18:31:51 81° SE 18:36:09 16° NE
Radarsat Rocket 4.2 18:29:12 10° SSE 18:35:01 76° WSW 18:41:17 10° NNW
IRAS Rocket 4.2 18:29:31 10° SSE 18:35:03 66° ENE 18:40:39 10° NNW
CARTOSAT-1 3.5 18:30:52 10° SSE 18:35:04 83° W 18:39:18 10° NNW
CRYOSAT 2 4.4 18:32:44 10° NNE 18:37:34 56° E 18:42:21 10° S
NOSS 0 Rocket 4.1 18:31:22 10° NNW 18:37:37 76° WSW 18:43:50 10° SSE
Cosmos 1356 Rocket 4.5 18:34:58 10° NNW 18:38:43 44° W 18:42:30 10° SSW
USA 290 3.7 18:36:50 10° SW 18:39:49 37° WNW 18:42:51 10° N
Cosmos 1464 Rocket 4.2 18:39:33 10° N 18:45:46 50° ENE 18:51:52 10° SSE
USA 267 3.7 18:41:48 19° NE 18:46:30 55° NNW 18:52:50 10° W
ERS-1 Rocket 4.3 18:48:49 21° NE 18:48:49 21° NE 18:51:39 10° N
Cosmos 2297 Rocket 2.2 18:42:45 10° S 18:48:17 58° ESE 18:52:37 17° NE
Cosmos 1607 4.1 18:42:34 10° SW 18:48:42 75° NW 18:54:10 14° NE
Cosmos 1570 Rocket 4.1 18:44:18 10° S 18:49:23 50° ESE 18:52:48 20° NE
BREEZE-M DEB (TANK) 4.1 18:46:15 10° W 18:49:55 68° SSW 18:56:52 20° ESE
CSL-04 Rocket 3.9 18:47:26 25° ESE 18:50:06 44° ENE 18:55:06 10° N
Cosmos 2344 4.3 18:44:10 10° SSE 18:50:31 27° ESE 18:51:12 26° ESE
Cosmos 1455 Rocket 2.8 18:47:08 10° N 18:51:27 78° E 18:55:45 10° SSE
Cosmos 1975 Rocket 4.2 18:48:21 10° SSE 18:50:38 26° SE 18:50:38 26° SE
DNEPR-1 R/B 4.2 18:48:07 10° NNW 18:52:41 47° NE 18:54:13 37° E
Cosmos 1125 Rocket 3.9 18:49:12 10° NNW 18:54:20 65° WSW 18:59:28 10° S
YAOGAN 1 4.4 18:53:19 10° SSW 18:57:07 31° W 19:00:58 10° NNW
Cosmos 2221 Rocket 4.0 18:52:50 10° SSW 18:57:16 65° WNW 19:01:46 10° N
Meteor 1-27 4.2 18:56:33 10° NNW 19:02:21 89° ENE 19:08:11 10° S
Okean 1 Rocket 4.4 18:59:23 10° NNW 19:03:31 41° W 19:07:37 10° SSW
DMSP B5D1-3 4.5 18:59:08 10° NNE 19:04:16 84° WNW 19:09:23 10° SSW
Cosmos 2208 Rocket 4.1 19:01:32 10° S 19:06:34 50° ESE 19:07:29 45° ENE
Terra 3.5 19:11:52 19° NNE 19:11:52 19° NNE 19:13:36 10° N
COSMOS 2428 4.4 19:06:28 10° NW 19:11:32 33° WSW 19:16:35 10° SSW
NOSS 3-3 (C) 3.8 19:07:41 10° SW 19:12:59 77° NW 19:16:44 25° NE
CZ-4B R/B 3.7 19:14:51 72° NNE 19:14:51 72° NNE 19:18:30 10° N
Meteor 2-17 Rocket 4.3 19:09:22 10° S 19:15:25 78° E 19:21:29 10° NNE
Cosmos 1980 4.1 19:09:51 10° NW 19:15:27 63° WSW 19:20:51 11° SSE
Resurs 01 Rocket 2.8 19:13:43 10° S 19:17:52 42° W 19:22:05 10° NNW
Cosmos 2237 Rocket 2.6 19:15:27 10° NW 19:21:04 62° WSW 19:25:52 14° S
ARIANE 6 FM1 Upper Stage 4.1 19:17:47 10° NNW 19:20:14 26° N 19:20:14 26° N
Cosmos 44 Rocket 3.8 19:17:39 10° SSW 19:21:21 43° SSE 19:21:21 43° SSE
COSMO-SKYMED 1 4.4 19:19:00 10° N 19:22:36 29° WNW 19:26:10 10° SW
Cosmos 773 Rocket 3.8 19:18:37 10° SSW 19:23:51 74° ESE 19:25:06 52° NE
Cosmos 2228 2.9 19:21:31 10° NNW 19:25:36 81° WNW 19:25:36 81° WNW
Orbus 7S? 3.8 19:20:16 10° WNW 19:28:22 80° SW 19:28:58 67° SSE
Cosmos 2150 Rocket 3.9 19:27:47 10° NNW 19:32:59 82° WSW 19:33:58 59° S
Cosmos 2298 Rocket 3.9 19:28:24 10° NNW 19:33:43 86° WSW 19:34:42 60° SSE
NOSS 3-3 (A) 4.5 19:36:53 10° WSW 19:42:07 50° NW 19:45:02 29° NNE
SL-16 R/B 2.2 19:39:13 10° NNW 19:44:20 63° NNE 19:44:20 63° NNE
Cosmos 2227 Rocket 2.7 19:41:35 10° SSW 19:45:30 45° S 19:45:30 45° S
SPOT 5 3.1 19:47:23 60° SW 19:47:58 66° W 19:52:59 10° NNW
MOS 1 4.3 19:49:14 67° NNE 19:49:14 67° NNE 19:54:17 10° NNW
Okean O Rocket 4.3 20:02:06 10° N 20:02:06 10° N 20:02:07 10° N
NOSS 3-4 (A) 4.2 19:53:11 10° NW 19:59:50 60° SW 20:02:39 39° S
NOSS 3-4 (C) 4.2 19:53:27 10° NW 20:00:07 60° SW 20:02:53 39° S
CZ-4 R/B 3.9 20:03:09 15° NNW 20:03:09 15° NNW 20:03:53 10° NNW
Cosmos 2034 Rocket 4.0 19:55:16 10° NNW 20:01:26 74° W 20:02:53 53° SSW
Lacrosse 5 rocket 3.7 20:00:37 10° WNW 20:01:48 17° NW 20:01:48 17° NW
CZ-4B R/B 3.8 20:08:36 47° NNW 20:08:36 47° NNW 20:12:21 10° NNW
BREEZE-M DEB (TANK) 3.9 19:54:20 10° W 20:10:36 68° S 20:10:46 68° S
ADEOS 4.5 20:12:43 43° NNW 20:12:43 43° NNW 20:16:15 10° NNW
Cosmos 1634 Rocket 4.4 20:05:24 10° N 20:10:07 52° N 20:10:07 52° N
ATLAS 2AS CENTAUR R/B 4.1 20:12:17 10° NW 20:17:50 25° N 20:18:40 25° NNE
CZ-4C R/B 3.6 20:16:32 10° W 20:20:46 30° NNW 20:21:07 29° NNW
USA 267 3.8 20:29:08 48° N 20:29:08 48° N 20:35:10 10° WNW
Cosmos 2297 Rocket 3.8 20:27:39 10° WSW 20:32:40 31° NW 20:34:29 26° NNW
Terra 4.4 20:50:29 16° NNW 20:50:29 16° NNW 20:51:31 10° NNW
Cosmos 2344 4.3 20:56:30 10° SW 21:01:17 41° WSW 21:01:17 41° WSW
